AEZ2383 LIPE-LIEE

Flight info

Callsign AEZ2383
Flight time N/A
Altitude 29000
Route PELEG M726 GAVRA DCT APSUX DCT PIDUL DCT SUKUN DCT LABOM Q125 KOVAS
Aircraft B738/M-SDE2E3FGHIRWXY/LB1

Departure

Time N/A
Airport Bologna Guglielmo Marconi Airport (LIPE)

Arrival

Time 2026-05-08 12:52
Airport Cagliari Elmas Airport (LIEE)
Time Latitude Longitude Altitude Speed Heading
2026-05-08 11:50 44.11524 11.75718 16345 ft 366 kts 173°
2026-05-08 11:50 44.08984 11.76238 16856 ft 371 kts 172°
2026-05-08 11:51 44.06420 11.76758 17369 ft 373 kts 173°
2026-05-08 11:51 44.03846 11.77274 17906 ft 375 kts 173°
2026-05-08 11:51 44.01259 11.77789 18417 ft 376 kts 173°
2026-05-08 11:51 43.98665 11.78305 18894 ft 377 kts 173°
2026-05-08 11:52 43.96071 11.78819 19355 ft 376 kts 173°
2026-05-08 11:52 43.93477 11.79334 19824 ft 378 kts 173°
2026-05-08 11:52 43.90868 11.79851 20325 ft 380 kts 174°
2026-05-08 11:52 43.88242 11.80369 20800 ft 382 kts 174°
2026-05-08 11:53 43.85601 11.80897 21318 ft 384 kts 173°
2026-05-08 11:53 43.82955 11.81428 21811 ft 385 kts 174°
2026-05-08 11:53 43.80297 11.81961 22352 ft 386 kts 174°
2026-05-08 11:53 43.77623 11.82259 22837 ft 385 kts 187°
2026-05-08 11:54 43.75059 11.81337 23408 ft 381 kts 202°
2026-05-08 11:54 43.72585 11.80005 23903 ft 382 kts 201°
2026-05-08 11:54 43.70089 11.78733 24363 ft 382 kts 201°
2026-05-08 11:54 43.67594 11.77482 24825 ft 381 kts 201°
2026-05-08 11:55 43.65099 11.76237 25289 ft 381 kts 201°
2026-05-08 11:55 43.62615 11.75001 25760 ft 380 kts 201°
2026-05-08 11:55 43.60163 11.73781 26240 ft 378 kts 201°
2026-05-08 11:55 43.57693 11.72552 26728 ft 376 kts 201°
2026-05-08 11:56 43.55236 11.71330 27246 ft 375 kts 201°
2026-05-08 11:56 43.52790 11.70114 27753 ft 373 kts 201°
2026-05-08 11:56 43.50358 11.68905 28275 ft 370 kts 201°
2026-05-08 11:56 43.47946 11.67708 28808 ft 368 kts 201°
2026-05-08 11:57 43.45534 11.66512 29126 ft 372 kts 201°
2026-05-08 11:57 43.40532 11.64030 29114 ft 392 kts 201°
2026-05-08 11:58 43.35275 11.61428 29127 ft 411 kts 200°
2026-05-08 11:58 43.29790 11.58718 29118 ft 427 kts 200°
2026-05-08 11:59 43.24100 11.55915 29101 ft 439 kts 200°
2026-05-08 11:59 43.21228 11.54502 29095 ft 438 kts 200°
2026-05-08 11:59 43.15497 11.51688 29097 ft 437 kts 200°
2026-05-08 12:00 43.09787 11.48889 29106 ft 434 kts 200°
2026-05-08 12:00 43.04114 11.46113 29097 ft 433 kts 200°
2026-05-08 12:01 42.98462 11.43352 29105 ft 432 kts 200°
2026-05-08 12:01 42.92837 11.40610 29100 ft 432 kts 200°
2026-05-08 12:02 42.87180 11.37857 29106 ft 433 kts 200°
2026-05-08 12:02 42.81502 11.35100 29104 ft 434 kts 200°
2026-05-08 12:03 42.77414 11.33118 29109 ft 436 kts 200°
2026-05-08 12:03 42.71668 11.30337 29113 ft 439 kts 200°
2026-05-08 12:04 42.65897 11.27551 29092 ft 442 kts 202°
2026-05-08 12:04 42.60086 11.24749 29089 ft 444 kts 202°
2026-05-08 12:05 42.54246 11.21937 29089 ft 446 kts 202°
2026-05-08 12:05 42.48380 11.19121 29095 ft 448 kts 202°
2026-05-08 12:06 42.42491 11.16300 29097 ft 450 kts 205°
2026-05-08 12:06 42.36576 11.13470 29104 ft 452 kts 205°
2026-05-08 12:07 42.30639 11.10636 29101 ft 453 kts 205°
2026-05-08 12:07 42.24692 11.07804 29102 ft 453 kts 205°
2026-05-08 12:08 42.18740 11.04976 29097 ft 453 kts 205°
2026-05-08 12:08 42.12793 11.02155 29100 ft 453 kts 205°
2026-05-08 12:09 42.06996 10.99412 29075 ft 451 kts 206°
2026-05-08 12:09 42.01077 10.96615 29094 ft 451 kts 206°
2026-05-08 12:10 41.95171 10.93829 29103 ft 450 kts 206°
2026-05-08 12:10 41.89254 10.91043 29094 ft 450 kts 206°
2026-05-08 12:11 41.83344 10.88266 29099 ft 450 kts 207°
2026-05-08 12:11 41.77434 10.85496 29105 ft 450 kts 207°
2026-05-08 12:12 41.71529 10.82732 29102 ft 450 kts 207°
2026-05-08 12:12 41.65611 10.79968 29096 ft 450 kts 207°
2026-05-08 12:13 41.59699 10.77213 29101 ft 450 kts 207°
2026-05-08 12:13 41.53791 10.74465 29105 ft 449 kts 207°
2026-05-08 12:14 41.47892 10.71726 29085 ft 449 kts 207°
2026-05-08 12:14 41.42000 10.68996 29098 ft 447 kts 207°
2026-05-08 12:15 41.36139 10.66285 29108 ft 446 kts 207°
2026-05-08 12:15 41.30275 10.63577 29106 ft 446 kts 207°
2026-05-08 12:16 41.24427 10.60882 29103 ft 444 kts 207°
2026-05-08 12:16 41.18774 10.57812 29080 ft 428 kts 223°
2026-05-08 12:17 41.16674 10.55211 29122 ft 415 kts 234°
2026-05-08 12:17 41.14862 10.52247 29116 ft 413 kts 237°
2026-05-08 12:17 41.11299 10.46268 29108 ft 413 kts 237°
2026-05-08 12:18 41.07696 10.40327 29080 ft 413 kts 236°
2026-05-08 12:18 41.04065 10.34415 29100 ft 414 kts 235°
2026-05-08 12:19 41.00266 10.28650 29110 ft 416 kts 233°
2026-05-08 12:19 40.96410 10.22933 29110 ft 417 kts 233°
2026-05-08 12:20 40.92558 10.17185 29113 ft 418 kts 233°
2026-05-08 12:20 40.88708 10.11419 29093 ft 418 kts 233°
2026-05-08 12:21 40.84858 10.05657 29101 ft 419 kts 233°
2026-05-08 12:21 40.81023 9.99929 29113 ft 419 kts 233°
2026-05-08 12:22 40.77865 9.95218 29109 ft 419 kts 233°
2026-05-08 12:22 40.73986 9.89470 29109 ft 420 kts 232°
2026-05-08 12:23 40.69964 9.83892 29085 ft 417 kts 231°
2026-05-08 12:23 40.67990 9.81214 29049 ft 399 kts 231°
2026-05-08 12:23 40.66064 9.78594 28393 ft 398 kts 231°
2026-05-08 12:24 40.64155 9.75980 27842 ft 394 kts 231°
2026-05-08 12:24 40.62261 9.73377 27279 ft 392 kts 231°
2026-05-08 12:24 40.60383 9.70793 26726 ft 390 kts 231°
2026-05-08 12:24 40.58515 9.68223 26183 ft 388 kts 231°
2026-05-08 12:25 40.56657 9.65668 25655 ft 386 kts 231°
2026-05-08 12:25 40.54806 9.63125 25131 ft 384 kts 231°
2026-05-08 12:25 40.52965 9.60596 24612 ft 382 kts 231°
2026-05-08 12:25 40.51130 9.58079 24107 ft 381 kts 231°
2026-05-08 12:26 40.49302 9.55574 23587 ft 379 kts 230°
2026-05-08 12:26 40.47482 9.53082 23010 ft 378 kts 230°
2026-05-08 12:26 40.45664 9.50593 22445 ft 377 kts 230°
2026-05-08 12:26 40.43849 9.48110 21871 ft 377 kts 230°
2026-05-08 12:27 40.42035 9.45634 21321 ft 375 kts 230°
2026-05-08 12:27 40.40228 9.43168 20784 ft 374 kts 230°
2026-05-08 12:27 40.38362 9.40787 20215 ft 377 kts 222°
2026-05-08 12:27 40.36021 9.39180 19695 ft 386 kts 204°
2026-05-08 12:28 40.33487 9.38064 19193 ft 383 kts 205°
2026-05-08 12:28 40.31006 9.36851 18703 ft 381 kts 206°
2026-05-08 12:28 40.28533 9.35594 18176 ft 381 kts 206°
2026-05-08 12:28 40.26069 9.34331 17604 ft 380 kts 206°
2026-05-08 12:29 40.23609 9.33075 17039 ft 379 kts 205°
2026-05-08 12:29 40.21156 9.31831 16469 ft 377 kts 205°
2026-05-08 12:29 40.18711 9.30598 15942 ft 376 kts 205°
2026-05-08 12:29 40.16273 9.29376 15399 ft 375 kts 205°
2026-05-08 12:30 40.13874 9.28172 14879 ft 374 kts 204°
2026-05-08 12:30 40.11454 9.26955 14358 ft 373 kts 204°
2026-05-08 12:30 40.09039 9.25744 13821 ft 371 kts 204°
2026-05-08 12:30 40.06639 9.24537 13279 ft 369 kts 204°
2026-05-08 12:31 40.04249 9.23345 12645 ft 367 kts 204°
2026-05-08 12:31 40.01876 9.22161 12121 ft 364 kts 203°
2026-05-08 12:31 39.99523 9.20987 11590 ft 363 kts 202°
2026-05-08 12:31 39.97163 9.19813 11054 ft 363 kts 202°
2026-05-08 12:32 39.94807 9.18636 10532 ft 362 kts 202°
2026-05-08 12:32 39.92481 9.17476 10336 ft 352 kts 202°
2026-05-08 12:32 39.90234 9.16358 10227 ft 340 kts 202°
2026-05-08 12:32 39.88072 9.15284 10218 ft 325 kts 202°
2026-05-08 12:33 39.86005 9.14261 10206 ft 312 kts 201°
2026-05-08 12:33 39.83971 9.13435 10198 ft 300 kts 196°
2026-05-08 12:33 39.81989 9.12792 10198 ft 288 kts 195°
2026-05-08 12:33 39.80079 9.12193 10196 ft 276 kts 195°
2026-05-08 12:34 39.78252 9.11613 10197 ft 264 kts 195°
2026-05-08 12:34 39.76507 9.11048 10193 ft 253 kts 195°
2026-05-08 12:34 39.74824 9.10498 10201 ft 247 kts 196°
2026-05-08 12:34 39.73163 9.09948 10204 ft 246 kts 195°
2026-05-08 12:35 39.71507 9.09398 10217 ft 246 kts 196°
2026-05-08 12:35 39.69864 9.08851 10203 ft 241 kts 196°
2026-05-08 12:35 39.68261 9.08320 10196 ft 234 kts 196°
2026-05-08 12:35 39.66702 9.07804 10193 ft 228 kts 197°
2026-05-08 12:36 39.65166 9.07332 10203 ft 229 kts 189°
2026-05-08 12:36 39.63561 9.07608 9970 ft 246 kts 154°
2026-05-08 12:36 39.62112 9.08890 9576 ft 256 kts 146°
2026-05-08 12:36 39.60618 9.10221 9105 ft 265 kts 148°
2026-05-08 12:37 39.59058 9.11556 8733 ft 270 kts 148°
2026-05-08 12:37 39.57511 9.12863 8684 ft 261 kts 148°
2026-05-08 12:37 39.56008 9.14122 8605 ft 253 kts 148°
2026-05-08 12:37 39.54569 9.15319 8526 ft 245 kts 149°
2026-05-08 12:38 39.53158 9.16489 8452 ft 237 kts 149°
2026-05-08 12:38 39.51782 9.17625 8301 ft 232 kts 149°
2026-05-08 12:38 39.50418 9.18748 8052 ft 233 kts 149°
2026-05-08 12:38 39.49060 9.19865 7861 ft 230 kts 149°
2026-05-08 12:39 39.47711 9.20972 7637 ft 229 kts 149°
2026-05-08 12:39 39.46368 9.22075 7428 ft 228 kts 149°
2026-05-08 12:39 39.45029 9.23174 7187 ft 229 kts 149°
2026-05-08 12:39 39.43680 9.24276 6910 ft 230 kts 149°
2026-05-08 12:40 39.42335 9.25377 6688 ft 229 kts 149°
2026-05-08 12:40 39.40982 9.26485 6462 ft 229 kts 148°
2026-05-08 12:40 39.39643 9.27580 6269 ft 226 kts 148°
2026-05-08 12:40 39.38324 9.28659 6017 ft 225 kts 148°
2026-05-08 12:41 39.37000 9.29742 5757 ft 225 kts 148°
2026-05-08 12:41 39.35667 9.30829 5423 ft 227 kts 148°
2026-05-08 12:41 39.34342 9.31908 5177 ft 224 kts 148°
2026-05-08 12:41 39.33027 9.32983 4980 ft 222 kts 148°
2026-05-08 12:42 39.31732 9.34046 4796 ft 220 kts 148°
2026-05-08 12:42 39.30429 9.35107 4529 ft 222 kts 148°
2026-05-08 12:42 39.29136 9.36157 4405 ft 215 kts 148°
2026-05-08 12:42 39.27888 9.37174 4458 ft 211 kts 148°
2026-05-08 12:43 39.26636 9.38194 4511 ft 217 kts 148°
2026-05-08 12:43 39.25340 9.39248 4523 ft 223 kts 148°
2026-05-08 12:43 39.24021 9.40317 4514 ft 223 kts 148°
2026-05-08 12:43 39.22721 9.41380 4506 ft 219 kts 148°
2026-05-08 12:44 39.21435 9.42429 4508 ft 220 kts 148°
2026-05-08 12:44 39.20143 9.43478 4514 ft 219 kts 148°
2026-05-08 12:44 39.18742 9.44288 4214 ft 230 kts 171°
2026-05-08 12:44 39.17142 9.44082 3758 ft 238 kts 205°
2026-05-08 12:45 39.15810 9.42809 3317 ft 244 kts 229°
2026-05-08 12:45 39.14647 9.41165 2859 ft 253 kts 228°
2026-05-08 12:45 39.13436 9.39496 2568 ft 253 kts 228°
2026-05-08 12:45 39.12258 9.37870 2518 ft 244 kts 228°
2026-05-08 12:46 39.11143 9.36294 2505 ft 233 kts 233°
2026-05-08 12:46 39.10477 9.34494 2504 ft 217 kts 264°
2026-05-08 12:46 39.10572 9.32630 2528 ft 203 kts 279°
2026-05-08 12:46 39.10750 9.30882 2544 ft 192 kts 277°
2026-05-08 12:47 39.10905 9.29180 2547 ft 191 kts 277°
2026-05-08 12:47 39.11057 9.27488 2526 ft 190 kts 277°
2026-05-08 12:47 39.11209 9.25800 2530 ft 190 kts 277°
2026-05-08 12:47 39.11358 9.24110 2521 ft 190 kts 277°
2026-05-08 12:48 39.11637 9.22462 2503 ft 189 kts 297°
2026-05-08 12:48 39.12370 9.21083 2531 ft 187 kts 304°
2026-05-08 12:48 39.13050 9.19649 2524 ft 187 kts 302°
2026-05-08 12:48 39.13918 9.18423 2523 ft 186 kts 324°
2026-05-08 12:49 39.14946 9.17418 2436 ft 192 kts 316°
2026-05-08 12:49 39.15870 9.16165 2202 ft 191 kts 315°
2026-05-08 12:49 39.16834 9.15079 1969 ft 178 kts 319°
2026-05-08 12:49 39.17719 9.14075 1730 ft 164 kts 317°
2026-05-08 12:50 39.18526 9.13137 1515 ft 150 kts 317°
2026-05-08 12:50 39.19288 9.12250 1383 ft 146 kts 316°
2026-05-08 12:50 39.20056 9.11354 1143 ft 148 kts 316°
2026-05-08 12:50 39.20827 9.10455 938 ft 150 kts 315°
2026-05-08 12:51 39.21597 9.09560 757 ft 149 kts 316°
2026-05-08 12:51 39.23104 9.07767 362 ft 147 kts 316°
2026-05-08 12:51 39.23869 9.06907 158 ft 146 kts 316°
2026-05-08 12:52 39.24620 9.06043 27 ft 142 kts 316°
2026-05-08 12:52 39.25586 9.04931 15 ft 29 kts 318°
2026-05-08 12:52 39.25753 9.04884 15 ft 8 kts 36°
2026-05-08 12:53 39.25767 9.04951 15 ft 8 kts 106°
2026-05-08 12:53 39.25740 9.05013 15 ft 8 kts 122°
2026-05-08 12:53 39.25703 9.05063 14 ft 8 kts 139°
2026-05-08 12:53 39.25657 9.05115 14 ft 9 kts 134°
2026-05-08 12:54 39.25604 9.05176 14 ft 11 kts 139°
2026-05-08 12:54 39.25542 9.05245 14 ft 13 kts 137°
2026-05-08 12:54 39.25474 9.05326 14 ft 14 kts 137°
2026-05-08 12:54 39.25414 9.05435 15 ft 16 kts 111°
2026-05-08 12:55 39.25391 9.05566 15 ft 12 kts 103°
2026-05-08 12:55 39.25349 9.05650 14 ft 10 kts 121°
2026-05-08 12:55 39.25370 9.05732 14 ft 11 kts 54°
2026-05-08 12:55 39.25386 9.05775 14 ft 6 kts 91°
2026-05-08 12:56 39.25359 9.05818 14 ft 7 kts 141°
2026-05-08 12:56 39.25345 9.05832 14 ft 0 kts 141°
2026-05-08 12:56 39.25340 9.05838 14 ft 0 kts 142°
2026-05-08 12:56 39.25337 9.05840 14 ft 1 kts 143°
2026-05-08 12:57 39.25337 9.05841 14 ft 0 kts 143°